Regional Weather Roundup
Issued by NWS

Home | Current Version | Previous Version | Graphics & Text | Print | Product List | Glossary On
Versions: 1 2 3 4 5 6 7 8 9 10 11 12 13 14 15 16 17 18 19 20 21 22 23 24 25 26 27 28 29 30 31 32 33 34 35 36 37 38 39 40 41 42 43 44 45 46 47 48 49 50
000
ASUS45 KPSR 271700
RWRAZ

PRELIMINARY ARIZONA REGIONAL HOURLY WEATHER ROUNDUP
NATIONAL WEATHER SERVICE PHOENIX AZ
1000 AM MST WED AUG 27 2014

NOTE: FAIR INDICATES FEW OR NO CLOUDS BELOW 12,000 FEET WITH NO
SIGNIFICANT WEATHER AND/OR OBSTRUCTIONS TO VISIBILITY.

AZZ001>003-036-271800-
NORTHWEST ARIZONA

CITY           SKY/WX    TMP DP  RH WIND       PRES   REMARKS
KINGMAN        SUNNY     81  56  42 VRB3      30.17S
$$

AZZ004>008-015-016-018-271800-
NORTH CENTRAL ARIZONA

CITY           SKY/WX    TMP DP  RH WIND       PRES   REMARKS
GRAND CANYON     N/A    N/A N/A N/A MISG        N/A
WILLIAMS       SUNNY     66  55  68 W10       30.45S
PRESCOTT       PTSUNNY   69  58  67 VRB3      30.30S
FLAGSTAFF      MOSUNNY   63  54  72 S3        30.42S
PAYSON         SUNNY     73  55  53 VRB3      30.33S
PAGE           MOSUNNY   68  51  54 N6        30.28R
$$

AZZ009>014-017-271800-
NORTHEAST ARIZONA

CITY           SKY/WX    TMP DP  RH WIND       PRES   REMARKS
WINSLOW        NOT AVBL
SAINT JOHNS    PTSUNNY   62  56  80 VRB3      30.37F
WINDOW ROCK    CLOUDY    60  53  77 CALM      30.40
$$

AZZ023-271800-
GREATER PHOENIX AREA

CITY           SKY/WX    TMP DP  RH WIND       PRES   REMARKS
PHOENIX        MOSUNNY   91  61  36 E9        30.03S
GLENDALE       MOSUNNY   90  63  40 E5        30.05S
DEER VALLEY    SUNNY     89  61  38 CALM      30.05S
SCOTTSDALE     SUNNY     89  61  38 VRB3      30.07R
MESA-FALCON    MOSUNNY   88  59  37 N9        30.05S
MESA-GATEWAY   MOSUNNY   88  61  40 SW3       30.08R
CHANDLER       MOSUNNY   90  63  40 NE5       30.05S
$$

AZZ027-028-271800-
SOUTHWEST MARICOPA COUNTY AND PINAL COUNTY

CITY           SKY/WX    TMP DP  RH WIND       PRES   REMARKS
CASA GRANDE    SUNNY     88  66  48 CALM      30.07S
GILA BEND      SUNNY     93  61  33 E2        30.03R
$$

AZZ503-504-507>509-271800-
SOUTHEAST ARIZONA

CITY           SKY/WX    TMP DP  RH WIND       PRES   REMARKS
TUCSON         SUNNY     84  65  52 SW3       30.15R
DAVIS-MONTHAN  SUNNY     83  65  54 VRB1      30.14R
RYAN FIELD       N/A     82  68  61 CALM      30.14S
NOGALES          N/A    N/A N/A N/A MISG      30.20S
SIERRA VISTA   PTSUNNY   77  63  61 N3        30.27R
SAFFORD        SUNNY     79  64  60 W6        30.17S
$$

AZZ020-021-025-026-031-271800-
SOUTHWEST ARIZONA

CITY           SKY/WX    TMP DP  RH WIND       PRES   REMARKS
YUMA           SUNNY     95  48  20 NW3       29.96R
$$

CAZ031-033-041-043-047-048-061-271800-
SOUTHERN CALIFORNIA

CITY           SKY/WX    TMP DP  RH WIND       PRES   REMARKS
DOWNTOWN L.A.  SUNNY     83  56  39 CALM      30.02S
L.A. AIRPORT   SUNNY     82  56  40 CALM      30.04S
SAN DIEGO      SUNNY     79  63  57 NW6       30.04R
BURBANK        SUNNY     82  48  30 CALM      30.05S
ONTARIO        SUNNY     82  54  37 CALM      30.06S
RIVERSIDE      SUNNY     83  51  33 CALM      30.06S
PALM SPRINGS   SUNNY     94  48  20 VRB3      29.98S
EL CENTRO NAS  MOSUNNY   97  42  15 W5        29.94R
IMPERIAL       SUNNY     94  46  19 NW3       29.94R
BLYTHE         SUNNY     94  54  25 N5        29.97R
$$

NVZ020-UTZ003-271800-
SOUTHERN NEVADA-UTAH

CITY           SKY/WX    TMP DP  RH WIND       PRES   REMARKS
LAS VEGAS      NOT AVBL
SALT LAKE CITY CLOUDY    68  54  60 CALM      30.24R
$$

NMZ009-TXZ055-271800-
NEW MEXICO-WEST TEXAS

CITY           SKY/WX    TMP DP  RH WIND       PRES   REMARKS
ALBUQUERQUE    MOSUNNY   68  55  63 CALM      30.32S
EL PASO        MOSUNNY   78  64  61 N5        30.21R
$$


........................KEY........................
SKY/WX - SKY CONDITION/WEATHER
TMP    - TEMPERATURE IN FAHRENHEIT
DP     - DEW POINT IN FAHRENHEIT
RH     - RELATIVE HUMIDITY IN PERCENT
WIND   - DIRECTION AND SPEED IN MILES PER HOUR (MPH)
VRB    - VARIABLE WIND DIRECTION
PRES   - MEAN SEA LEVEL PRESSURE IN INCHES OF MERCURY
         F - FALLING PRESSURE   R - RISING PRESSURE
         S - STEADY PRESSURE
VSB    - VISIBILITY IN MILES
HX     - HEAT INDEX IN FAHRENHEIT
WCI    - WIND CHILL INDEX IN FAHRENHEIT
TC     - TEMPERATURE IN CELSIUS WHICH IS ALSO KNOWN AS
         TEMPERATURE IN CENTIGRADE
AFB    - AIR FORCE BASE
         LUKE AFB IS LUKE AIR FORCE BASE
         DAVIS-MONTHAN IS DAVIS-MONTHAN AIR FORCE BASE
NAS    - NAVAL AIR STATION
         EL CENTRO NAS IS EL CENTRO NAVAL AIR STATION
N/A    - NOT AVAILABLE



USA.gov is the U.S. government's official web portal to all federal, state and local government web resources and services.